Нежданинское

Россия / Республика Саха (Якутия)     62°29′52″N   139°03′33″E
темп.,
°C
ветер,
м/с
пор.,
м/с
влажн.,
%
обл.,
%
осадки,
мм/ч
давл.,
гПа
погр.,
м
27 февраля, сб
сб2701:00−35св0010033 0.0 103119
04:00−34всв009651 0.0 103019
07:00−34в01870 0.0 103019
10:00−29всв017817 0.0 102922
13:00−24ссв017162 0.0 1027143
16:00−23с118457 0.0 102551
19:00−28в11850 0.0 102519
22:00−28в22780 0.0 102419
28 февраля, вс
вс2801:00−29в22760 0.0 102319
04:00−29в32690 0.0 102119
07:00−29в22680 0.0 102119
10:00−25в22770 0.0 102050
13:00−20в12660 0.0 1018261
16:00−20св01797 0.0 101821
19:00−26всв008085 0.0 102020
22:00−27ссв018292 0.0 102119
1 марта, пн
пн101:00−29з1187100 0.0 102119
04:00−32сз019799 0.0 102219
07:00−34зсз0110097 0.0 102219
10:00−30зюз119998 0.0 102255
13:00−28з2191100 0.0 1021346
16:00−28зюз2290100 0.1 1021344
19:00−34з11100100 0.0 102319
22:00−37з00100100 0.0 102419
2 марта, вт
вт201:00−38зюз00100100 0.0 102319
04:00−37ююз019999 0.0 102219
07:00−36юз119899 0.0 102219
10:00−33юз219699 0.0 102177
13:00−30зюз2294100 0.0 1020157
16:00−29зюз2297100 0.1 1020130
19:00−31юз2299100 0.2 102238
22:00−32зюз1199100 0.3 102330
3 марта, ср
ср301:00−32з1199100 0.1 102219
04:00−32зсз11100100 0.3 102219
07:00−31сз1199100 0.1 102119
10:00−29з1198100 0.1 101991
13:00−27з2196100 0.0 1016222
16:00−27зюз2295100 0.1 1014269
19:00−31юз22100100 0.1 101420
22:00−33зюз12100100 0.1 101220